Erie, PA

6:09 AM EDT on October 16, 2019 (GMT -0400)
Erie International

Weather History for KERI - August, 2019

Change the Weather History Date:

Saturday, August 3, 2019

  Actual Average Record
Temperature  
Mean Temperature 73 °F 72 °F  
Max Temperature 82 °F 80 °F 93 °F (1944)
Min Temperature 63 °F 64 °F 49 °F (1956)
Degree Days  
Heating Degree Days 0 0  
Month to date heating degree days 0 0  
Since 1 June heating degree days 38 68  
Since 1 July heating degree days 0 7  
Cooling Degree Days 8 7  
Month to date cooling degree days 23 21  
Year to date cooling degree days 488 396  
Since 1 June cooling degree days 455 357  
Growing Degree Days 22 (Base 50)    
Moisture  
Dew Point 59 °F    
Average Humidity 65    
Maximum Humidity 90    
Minimum Humidity 40    
Precipitation  
Precipitation 0.00 in 0.12 in 2.66 in (1964)
Month to date precipitation 0.00 0.36  
Year to date precipitation 22.50 22.72  
Snow  
Snow 0.00 in 0.00 in - ()
Month to date snowfall 0.0 0.0  
Since 1 June snowfall 0.0 0.0  
Since 1 July snowfall 0.0 0.0  
Snow Depth 0.00 in    
Sea Level Pressure  
Sea Level Pressure 30.04 in    
Wind  
Wind Speed 5 mph (SW)    
Max Wind Speed 10 mph    
Max Gust Speed 14 mph    
Visibility 10 miles    
Events      
T = Trace of Precipitation, MM = Missing Value Source: NWS Daily Summary

Daily Weather History Graph

Daily Weather History Graph

Search for Another Location

Airport or City:

Astronomy

Aug. 03, 2019 Rise Set
Actual Time 6:15 AM EDT 8:37 PM EDT
Civil Twilight 5:44 AM EDT 9:08 PM EDT
Nautical Twilight 5:05 AM EDT 9:47 PM EDT
Astronomical Twilight 4:22 AM EDT 10:30 PM EDT
Moon 9:09 AM EDT (8/3) 10:38 PM EDT (8/3)
Length of Visible Light 15h 24m
Length of Day
14h 21m
Waxing Crescent, 10% of the Moon is Illuminated
Aug 3
Waxing Crescent
Aug 7
First Quarter
Aug 15
Full
Aug 23
Last Quarter
Aug 30
New

Hourly Weather History & Observations

Time (EDT) Temp. Heat Index Dew Point Humidity Pressure Visibility Wind Dir Wind Speed Gust Speed Precip Events Conditions
12:51 AM 66.9 °F - 59.0 °F 76% 30.06 in 10.0 mi South 4.6 mph - N/A   Clear
1:51 AM 64.9 °F - 59.0 °F 81% 30.06 in 10.0 mi SSW 3.5 mph - N/A   Clear
2:51 AM 64.0 °F - 59.0 °F 84% 30.05 in 10.0 mi South 3.5 mph - N/A   Clear
3:51 AM 64.0 °F - 59.0 °F 84% 30.04 in 10.0 mi South 3.5 mph - N/A   Clear
4:51 AM 64.0 °F - 59.0 °F 84% 30.05 in 10.0 mi South 3.5 mph - N/A   Clear
5:51 AM 64.0 °F - 59.0 °F 84% 30.06 in 10.0 mi Calm Calm - N/A   Clear
6:51 AM 63.0 °F - 59.0 °F 87% 30.06 in 10.0 mi South 4.6 mph - N/A   Clear
7:51 AM 68.0 °F - 61.0 °F 78% 30.06 in 10.0 mi South 5.8 mph - N/A   Clear
8:51 AM 73.9 °F - 62.1 °F 66% 30.07 in 10.0 mi Calm Calm - N/A   Clear
9:51 AM 78.1 °F - 61.0 °F 56% 30.07 in 10.0 mi Variable 3.5 mph - N/A   Clear
10:51 AM 78.1 °F - 61.0 °F 56% 30.07 in 10.0 mi NNW 6.9 mph - N/A   Clear
11:51 AM 78.1 °F - 63.0 °F 60% 30.06 in 10.0 mi Variable 6.9 mph - N/A   Clear
12:51 PM 78.1 °F - 64.0 °F 62% 30.06 in 10.0 mi NW 8.1 mph - N/A   Clear
1:51 PM 81.0 °F 80.8 °F 55.9 °F 42% 30.04 in 10.0 mi NNW 6.9 mph - N/A   Clear
2:51 PM 82.0 °F 81.4 °F 55.0 °F 39% 30.03 in 10.0 mi North 9.2 mph - N/A   Clear
3:51 PM 79.0 °F - 57.0 °F 47% 30.03 in 10.0 mi WNW 5.8 mph - N/A   Clear
4:51 PM 80.1 °F 80.4 °F 57.0 °F 45% 30.01 in 10.0 mi West 8.1 mph - N/A   Clear
5:51 PM 80.1 °F 80.2 °F 55.9 °F 43% 30.01 in 10.0 mi WNW 8.1 mph - N/A   Clear
6:51 PM 79.0 °F - 57.9 °F 48% 30.00 in 10.0 mi West 6.9 mph - N/A   Clear
7:51 PM 77.0 °F - 57.9 °F 52% 29.99 in 10.0 mi WSW 3.5 mph - N/A   Clear
8:51 PM 73.9 °F - 57.9 °F 57% 29.99 in 10.0 mi SW 3.5 mph - N/A   Clear
9:51 PM 70.0 °F - 57.9 °F 65% 30.01 in 10.0 mi SSW 3.5 mph - N/A   Clear
10:51 PM 68.0 °F - 57.9 °F 70% 30.01 in 10.0 mi Calm Calm - N/A   Clear
11:51 PM 66.9 °F - 57.9 °F 73% 30.01 in 10.0 mi South 4.6 mph - N/A   Clear